Regional Weather Roundup
Issued by NWS Burlington, VT

Home | Current Version | Previous Version | Text Only | Print | Product List | Glossary On
Versions: 1 2 3 4 5 6 7 8 9 10 11 12 13 14 15 16 17 18 19 20 21 22 23 24 25 26 27 28 29 30 31 32 33 34 35 36 37 38 39 40 41 42 43 44 45 46 47 48 49 50
665
ASUS41 KBTV 281510
RWRBTV
VERMONT REGIONAL WEATHER ROUNDUP
NATIONAL WEATHER SERVICE BURLINGTON VT
1100 AM EDT TUE MAR 28 2017

NOTE: "FAIR" INDICATES FEW OR NO CLOUDS BELOW 12,000 FEET WITH NO
SIGNIFICANT WEATHER AND/OR OBSTRUCTIONS TO VISIBILITY.

* THESE REPORTS ARE NOT UNDER NWS QUALITY CONTROL AND/OR DO NOT
  REPORT WEATHER SUCH AS PRECIPITATION AND FOG.

VTZ001>019-281600-
_____VERMONT_____


CITY           SKY/WX    TMP DP  RH WIND       PRES   REMARKS
BURLINGTON     CLOUDY    47  43  86 S8        29.90S
MORRISVILLE    CLOUDY    41  29  62 SW5       29.92F
ST. JOHNSBURY*   N/A     37  36  96 MISG      29.94F
LYNDONVILLE*   FOG       35  35  99 SE6       29.96S VSB<1/4 WCI  30
MIDDLEBURY*    CLOUDY    46  43  89 S7        29.92S
RUTLAND*       CLOUDY    41  39  93 NE5       29.93S
SPRINGFIELD    CLOUDY    38  35  89 S5        29.99S
HIGHGATE*      CLOUDY    43  42  98 CALM      29.89S FOG
NEWPORT*       CLOUDY    40  37  87 S6        29.91F
BENNINGTON     CLOUDY    51  43  74 CALM      29.92S
SUTTON*          N/A     36 N/A N/A MISG        N/A

_____LAKE CHAMPLAIN_____


CITY           SKY/WX    TMP DP  RH WIND       PRES   REMARKS
BURTON ISLAND*   N/A     43  41  93 SW14        N/A
COLCHESTER RF*   N/A     43  41  93 S20         N/A
DIAMOND ISL*     N/A     43  41  93 SW9         N/A

$$

NYZ007-026>031-035-052-083-087-281600-
_____NORTHERN NEW YORK_____


CITY           SKY/WX    TMP DP  RH WIND       PRES   REMARKS
PLATTSBURGH    CLOUDY    40  37  89 CALM      29.89S
SARANAC LAKE   CLOUDY    47  47 100 SW8       29.87R
MASSENA        LGT RAIN  37  36  96 W5        29.95R FOG
POTSDAM*       DRIZZLE   37  37 100 NW3       29.94R
WATERTOWN      CLOUDY    43  43 100 N8        29.94R FOG
FT DRUM        DRIZZLE   43  41  93 N12       29.92R FOG
ALBANY         CLOUDY    49  42  77 S9        29.95R
GLENS FALLS    CLOUDY    42  40  92 CALM      29.94R FOG

$$
NHZ002-005-011-281600-
_____NEW HAMPSHIRE_____


CITY           SKY/WX    TMP DP  RH WIND       PRES   REMARKS
LEBANON        CLOUDY    38  35  89 NE6       29.98R
KEENE          CLOUDY    41  36  82 NE5       30.00F
MT WASHINGTON  FOG       36  36 100 W31         N/A  VSB 0   WCI  22
PLYMOUTH       LGT RAIN  35  34  96 CALM      30.02R
WHITEFIELD     CLOUDY    38  32  79 CALM      29.95R

$$

_____REGIONAL QUEBEC LOCATIONS_____


CITY           SKY/WX    TMP DP  RH WIND       PRES   REMARKS
MONTREAL       DRIZZLE   36  34  93 NE9       29.92S FOG     WCI  29
QUEBEC CITY    FRZ RAIN  32  30  93 E6        29.95S FOG     WCI  26
SHERBROOKE     LGT RAIN  39  37  93 E2        29.89S

_____REGIONAL ONTARIO LOCATIONS_____


CITY           SKY/WX    TMP DP  RH WIND       PRES   REMARKS
OTTAWA         CLOUDY    36  36 100 NW8       29.94S WCI  29

______KEY______
VSB  - VISIBILITY IN MILES
WCI  - WIND CHILL INDEX
HX   - HEAT INDEX
$$
NNNN




USA.gov is the U.S. government's official web portal to all federal, state and local government web resources and services.